[[{"header":{"parameterUnit":"m.s-1","parameterCategory":1,"la1":30.2991,"la2":30.254,"lo1":-89.0895,"lo2":-89.0444,"dy":0.0017,"dx":0.0017,"nx":28,"ny":28,"refTime":"2025-09-17T21:00:00:Z","depth":0,"parameterNumber":2,"parameterNumberName":"U-component_of_WINDS"},"data":[0,0,0,0,0,0,0,0,0,0,0,0,0,0,0,0,0,0,0,0,0,0,0,0,0,0,0,0,0,0,0,0,0,0,0,0,0,0,0,0,0,0,0,0,0,0,0,0,0,0,0,0,0,0,0,0,0,0,-0.5771,-0.5769,0,-0.5631,-0.5629,-0.5628,-0.5544,-0.5543,-0.5543,-0.5542,-0.5398,-0.5395,-0.5391,0,0,0,0,0,0,0,0,0,0,0,0,0,-0.5966,-0.5963,-0.5771,-0.5769,-0.5768,-0.5631,-0.5629,-0.5627,-0.5544,-0.5543,-0.5543,-0.5542,-0.5399,-0.5395,-0.5391,0,0,0,0,0,0,0,0,0,0,0,0,0,-0.586,-0.5962,-0.5771,-0.5709,-0.5702,-0.5632,-0.5629,-0.5627,-0.5544,-0.5543,-0.5543,-0.5542,-0.5401,-0.5395,-0.539,-0.537,0,0,-0.5374,-0.5372,0,0,0,0,0,0,0,0,-0.5866,-0.5853,-0.572,-0.5713,-0.5706,-0.5604,-0.5645,-0.5541,-0.5544,-0.5604,-0.5542,-0.5542,-0.5467,-0.5456,-0.5431,-0.5363,-0.5357,-0.5374,-0.5371,-0.5369,-0.5367,0,0,0,0,0,0,0,-0.5873,-0.5858,-0.5716,-0.5718,-0.5709,-0.5689,-0.5673,-0.5625,-0.554,-0.5599,-0.5592,-0.5577,-0.5463,-0.5437,-0.5427,-0.5355,-0.5374,-0.5369,-0.5366,-0.5364,-0.5266,-0.5267,0,0,0,0,0,0,-0.5891,-0.5865,-0.572,-0.5711,-0.5786,-0.5686,-0.5668,-0.5637,-0.5541,-0.5526,-0.5578,-0.5574,-0.5446,-0.5434,-0.5422,-0.5394,-0.5369,-0.5364,-0.5361,-0.5266,-0.5267,-0.5267,0,0,0,0,0,0,-0.5895,-0.5878,-0.5726,-0.5786,-0.5765,-0.5683,-0.5649,-0.5635,-0.5608,-0.5525,-0.5509,-0.5566,-0.5445,-0.5429,-0.5384,-0.5387,-0.5361,-0.5357,-0.5265,-0.5266,-0.5267,-0.5336,0,0,0,0,0,0,-0.5901,-0.5881,-0.5872,-0.5787,-0.5762,-0.569,-0.5649,-0.5633,-0.56,-0.5593,-0.551,-0.5496,-0.5443,-0.5393,-0.5379,-0.538,-0.5353,-0.5265,-0.5266,-0.5267,-0.5333,-0.5339,-0.5345,0,0,0,0,0,-0.5908,-0.5896,-0.5872,-0.5855,-0.5749,-0.5691,-0.5677,-0.5617,-0.56,-0.5591,-0.5538,-0.5498,-0.539,-0.5389,-0.5373,-0.5372,-0.5264,-0.5265,-0.5266,-0.5331,-0.5338,-0.5344,0,0,0,0,0,0,-0.5982,-0.5883,-0.5855,-0.5815,-0.5762,-0.5677,-0.5663,-0.5626,-0.5576,-0.5572,-0.55,-0.5482,-0.5444,-0.5403,-0.5404,-0.5349,-0.5322,-0.5321,-0.5377,-0.5383,-0.5389,-0.5399,-0.5348,0,0,0,0,0,-0.5994,-0.5954,-0.587,-0.5843,-0.5818,-0.5745,-0.5717,-0.5676,-0.5618,-0.5595,-0.5538,-0.5483,-0.5437,-0.5408,-0.536,-0.5327,-0.5309,-0.5319,-0.5325,-0.533,-0.5329,-0.5311,-0.5315,-0.5271,-0.5271,-0.5271,0,0,-0.6017,-0.5958,-0.5937,-0.5856,-0.581,-0.5772,-0.5727,-0.5687,-0.5658,-0.5588,-0.5543,-0.55,-0.5434,-0.5396,-0.5377,-0.5361,-0.5338,-0.5331,-0.5336,-0.5332,-0.5313,-0.5317,-0.5321,-0.5272,-0.5272,-0.5272,0,0,-0.604,-0.5991,-0.5964,-0.592,-0.5851,-0.5804,-0.5798,-0.5718,-0.5687,-0.5641,-0.5589,-0.5554,-0.5474,-0.543,-0.5398,-0.5408,-0.5371,-0.5395,-0.5424,-0.5407,-0.5411,-0.5414,-0.5419,-0.5421,-0.5394,-0.5394,-0.5394,0,-0.6078,-0.6017,-0.5955,-0.5919,-0.5885,-0.5823,-0.5795,-0.5755,-0.5675,-0.5653,-0.5637,-0.5539,-0.549,-0.5442,-0.5445,-0.542,-0.5412,-0.5403,-0.5415,-0.5417,-0.5419,-0.5423,-0.5425,-0.5398,-0.5397,-0.5397,-0.5397,0,-0.6068,-0.6027,-0.6013,-0.5939,-0.5904,-0.5872,-0.5806,-0.5778,-0.5741,-0.5696,-0.5651,-0.559,-0.5531,-0.5516,-0.5478,-0.5464,-0.5457,-0.5429,-0.5401,-0.5428,-0.5431,-0.5432,-0.5403,-0.5402,-0.54,-0.54,0,0,-0.6131,-0.6025,-0.6021,-0.5988,-0.5909,-0.5876,-0.5843,-0.5786,-0.5764,-0.5712,-0.5683,-0.5619,-0.5594,-0.5557,-0.5515,-0.55,-0.5515,-0.5474,-0.5472,-0.5485,-0.5497,-0.5519,-0.5522,-0.549,-0.549,-0.549,-0.5503,0,-0.6144,-0.6081,-0.6025,-0.5983,-0.5946,-0.5887,-0.5859,-0.5808,-0.5766,-0.5728,-0.5681,-0.5638,-0.5607,-0.5585,-0.5568,-0.5517,-0.5517,-0.5515,-0.5463,-0.5462,-0.5482,-0.5523,-0.5545,-0.5561,-0.5504,-0.5504,-0.5504,0,-0.6149,-0.6101,-0.6056,-0.5983,-0.5966,-0.5941,-0.5885,-0.585,-0.5792,-0.5762,-0.5723,-0.5679,-0.5643,-0.5619,-0.5569,-0.5569,-0.5545,-0.5518,-0.5517,-0.551,-0.5485,-0.5519,-0.5564,-0.5567,-0.5505,-0.5505,-0.5505,0,-0.6202,-0.6126,-0.6089,-0.6062,-0.5977,-0.5961,-0.5925,-0.5866,-0.5836,-0.5788,-0.5768,-0.5716,-0.5688,-0.5649,-0.5593,-0.5581,-0.555,-0.5521,-0.5525,-0.5526,-0.552,-0.5522,-0.5564,-0.5504,-0.5504,-0.5504,-0.5504,0,-0.6222,-0.6197,-0.6112,-0.609,-0.6061,-0.5998,-0.5971,-0.593,-0.5879,-0.5848,-0.5794,-0.5767,-0.5694,-0.5658,-0.5614,-0.558,-0.5567,-0.5543,-0.5532,-0.5548,-0.5552,-0.5532,-0.553,-0.5504,-0.5504,-0.5504,-0.5504,0,-0.6276,-0.6218,-0.6175,-0.6098,-0.6079,-0.6061,-0.5996,-0.5973,-0.5928,-0.589,-0.5878,-0.5808,-0.5763,-0.5704,-0.564,-0.561,-0.5583,-0.5564,-0.5603,-0.5596,-0.5604,-0.5605,-0.5636,-0.5637,-0.5576,-0.5577,-0.5577,0,-0.6293,-0.6273,-0.6195,-0.6171,-0.6137,-0.6098,-0.6068,-0.6006,-0.5977,-0.5912,-0.5897,-0.5849,-0.5807,-0.5739,-0.5682,-0.5634,-0.5615,-0.5629,-0.5607,-0.5626,-0.5617,-0.5619,-0.5618,-0.5635,-0.5636,-0.5636,-0.5637,0,-0.6329,-0.6303,-0.6261,-0.6211,-0.6177,-0.6134,-0.6089,-0.6073,-0.6001,-0.5972,-0.5926,-0.5894,-0.5831,-0.5784,-0.5729,-0.5692,-0.5653,-0.5645,-0.5643,-0.566,-0.5684,-0.5673,-0.5619,-0.5644,-0.5643,-0.5643,-0.5642,-0.5642,-0.6366,-0.6346,-0.6289,-0.6246,-0.6206,-0.6166,-0.6141,-0.6095,-0.6056,-0.6,-0.5966,-0.5922,-0.5867,-0.579,-0.5755,-0.5721,-0.5705,-0.5703,-0.5702,-0.5703,-0.571,-0.569,-0.571,-0.571,-0.571,-0.5709,-0.5709,0,-0.6401,-0.6362,-0.6323,-0.6263,-0.6229,-0.6197,-0.6146,-0.612,-0.6083,-0.6035,-0.5996,-0.5945,-0.5901,-0.5842,-0.5793,-0.5778,-0.5759,-0.5767,-0.5768,-0.5761,-0.5725,-0.5732,-0.5783,-0.5783,-0.5783,-0.5783,-0.5783,-0.5783,-0.6415,-0.6381,-0.6348,-0.6295,-0.6256,-0.6213,-0.6187,-0.6151,-0.6113,-0.6059,-0.6022,-0.5984,-0.5933,-0.5881,-0.5839,-0.5823,-0.5808,-0.5822,-0.5801,-0.5769,-0.5763,-0.5756,-0.5762,-0.5819,-0.5819,-0.5839,-0.584,-0.584]},{"header":{"parameterUnit":"m.s-1","parameterCategory":1,"la1":30.2991,"la2":30.254,"lo1":-89.0895,"lo2":-89.0444,"dy":0.0017,"dx":0.0017,"nx":28,"ny":28,"refTime":"2025-09-17T21:00:00:Z","depth":0,"parameterNumber":3,"parameterNumberName":"V-component_of_WINDS"},"data":[0,0,0,0,0,0,0,0,0,0,0,0,0,0,0,0,0,0,0,0,0,0,0,0,0,0,0,0,0,0,0,0,0,0,0,0,0,0,0,0,0,0,0,0,0,0,0,0,0,0,0,0,0,0,0,0,0,0,2.7433,2.7433,0,2.7421,2.7421,2.7421,2.7478,2.7479,2.7481,2.7482,2.7463,2.7461,2.7459,0,0,0,0,0,0,0,0,0,0,0,0,0,2.7498,2.7496,2.7433,2.7433,2.7433,2.7421,2.7421,2.7421,2.7477,2.7479,2.7481,2.7483,2.7464,2.7461,2.7459,0,0,0,0,0,0,0,0,0,0,0,0,0,2.7476,2.7496,2.7433,2.746,2.7462,2.7421,2.7421,2.7421,2.7477,2.7479,2.7482,2.7484,2.7465,2.7462,2.7459,2.739,0,0,2.7449,2.7448,0,0,0,0,0,0,0,0,2.7477,2.7473,2.7456,2.7458,2.746,2.7454,2.7437,2.741,2.7476,2.7471,2.7482,2.7485,2.7458,2.7455,2.7447,2.7389,2.7388,2.7449,2.7447,2.7446,2.7445,0,0,0,0,0,0,0,2.7478,2.7474,2.7428,2.7455,2.7458,2.747,2.747,2.7432,2.745,2.7471,2.7476,2.7474,2.7459,2.745,2.7447,2.7388,2.7449,2.7446,2.7444,2.7443,2.7272,2.727,0,0,0,0,0,0,2.7477,2.7475,2.7429,2.7428,2.7475,2.7467,2.7466,2.7453,2.7451,2.7453,2.7472,2.7477,2.7454,2.7451,2.7447,2.7365,2.7446,2.7443,2.7441,2.7275,2.7272,2.7269,0,0,0,0,0,0,2.7479,2.7473,2.7429,2.7453,2.7448,2.7463,2.7447,2.7451,2.7443,2.7451,2.7454,2.746,2.7456,2.7451,2.7404,2.7366,2.7442,2.7439,2.7278,2.7274,2.727,2.7202,0,0,0,0,0,0,2.748,2.7473,2.7448,2.7452,2.7447,2.7388,2.7445,2.7449,2.7438,2.7444,2.744,2.7442,2.7458,2.7408,2.7401,2.7363,2.7436,2.7281,2.7276,2.7271,2.7208,2.7197,2.7187,0,0,0,0,0,2.7482,2.7428,2.7447,2.7441,2.7416,2.7386,2.7382,2.7403,2.7435,2.7409,2.7415,2.7442,2.7372,2.7403,2.7395,2.7355,2.7284,2.7278,2.7272,2.7213,2.7199,2.7187,0,0,0,0,0,0,2.7416,2.7429,2.745,2.7395,2.7389,2.7395,2.7363,2.7388,2.7371,2.7377,2.7402,2.74,2.7349,2.7348,2.7383,2.7289,2.7333,2.7325,2.7291,2.7277,2.7267,2.7267,2.7434,0,0,0,0,0,2.7396,2.7373,2.7384,2.7335,2.7331,2.7348,2.7335,2.7352,2.7346,2.7343,2.7345,2.7336,2.7312,2.7295,2.7273,2.7209,2.7208,2.7178,2.7167,2.7158,2.715,2.7115,2.7102,2.7249,2.7249,2.7249,0,0,2.7353,2.7357,2.734,2.7322,2.7319,2.7292,2.7345,2.7314,2.7293,2.7337,2.7293,2.7295,2.7286,2.723,2.7205,2.7228,2.711,2.7151,2.7144,2.714,2.7108,2.7094,2.7081,2.7245,2.7245,2.7246,0,0,2.726,2.7261,2.722,2.7217,2.7214,2.7226,2.7216,2.7219,2.7222,2.7179,2.7211,2.7186,2.7145,2.7137,2.7128,2.7033,2.7057,2.7026,2.6968,2.6934,2.6922,2.6912,2.6877,2.6864,2.7018,2.7018,2.7018,0,2.7205,2.7168,2.7195,2.7163,2.7153,2.7195,2.7153,2.7148,2.7136,2.7127,2.7153,2.7102,2.7099,2.7042,2.7019,2.7011,2.6998,2.7025,2.6922,2.6912,2.6903,2.687,2.6856,2.7014,2.7014,2.7015,2.7015,0,2.7101,2.7074,2.7041,2.7032,2.7019,2.6981,2.7001,2.6984,2.7003,2.7011,2.6966,2.6965,2.6943,2.6932,2.6948,2.6876,2.689,2.6919,2.6963,2.6885,2.6853,2.6841,2.7008,2.701,2.7011,2.7012,0,0,2.6963,2.6971,2.6958,2.6954,2.6955,2.6933,2.6897,2.6879,2.6863,2.6854,2.6823,2.6787,2.6815,2.6804,2.6821,2.6791,2.6714,2.6823,2.6823,2.6801,2.6633,2.6609,2.6594,2.6732,2.6729,2.6728,2.6633,0,2.6871,2.6811,2.6836,2.6773,2.6748,2.6789,2.6757,2.6752,2.676,2.6738,2.6745,2.6719,2.6758,2.6752,2.6724,2.6729,2.668,2.6737,2.67,2.6698,2.6699,2.6578,2.6553,2.6463,2.6621,2.6619,2.6617,0,2.6754,2.6743,2.6679,2.6684,2.6674,2.6645,2.663,2.661,2.6605,2.6613,2.6602,2.6625,2.6588,2.6635,2.6583,2.6621,2.6607,2.6608,2.6605,2.66,2.6651,2.6568,2.6435,2.6421,2.6599,2.66,2.6602,0,2.6658,2.6627,2.6584,2.658,2.6585,2.6564,2.6564,2.6563,2.655,2.6537,2.6528,2.651,2.6499,2.6483,2.65,2.6533,2.6445,2.6494,2.6448,2.6447,2.6425,2.6426,2.6287,2.642,2.6421,2.6421,2.6421,0,2.6551,2.6509,2.6541,2.6515,2.6469,2.6497,2.6451,2.6456,2.6454,2.6427,2.6461,2.6435,2.6461,2.6437,2.645,2.6404,2.6399,2.6402,2.6405,2.6398,2.6397,2.6387,2.6393,2.6417,2.6418,2.6419,2.6419,0,2.6434,2.6455,2.6411,2.642,2.6422,2.6387,2.6394,2.6369,2.638,2.6346,2.634,2.6355,2.6329,2.6346,2.6318,2.6327,2.6266,2.6279,2.6268,2.6271,2.6224,2.6227,2.6071,2.6051,2.62,2.6198,2.6197,0,2.6363,2.6333,2.634,2.6326,2.6325,2.6302,2.629,2.6317,2.6303,2.6296,2.6271,2.6248,2.6231,2.6186,2.6194,2.6172,2.6184,2.6131,2.6181,2.6174,2.6181,2.6181,2.6178,2.612,2.6118,2.6117,2.6116,0,2.6234,2.6247,2.623,2.6216,2.6202,2.6192,2.6184,2.617,2.6197,2.6179,2.6154,2.6141,2.6114,2.609,2.6073,2.6071,2.6096,2.6101,2.6088,2.6079,2.6073,2.6074,2.6238,2.6103,2.6104,2.6105,2.6106,2.6106,2.6137,2.6112,2.6113,2.6093,2.6091,2.6083,2.606,2.607,2.605,2.6032,2.6049,2.6017,2.6013,2.5993,2.5988,2.5963,2.5984,2.5967,2.5962,2.5957,2.595,2.6079,2.596,2.5961,2.5961,2.5961,2.5962,0,2.6009,2.6012,2.5994,2.5984,2.5967,2.5997,2.599,2.5974,2.5947,2.5943,2.5926,2.5896,2.5874,2.588,2.586,2.5838,2.5849,2.5831,2.5832,2.5831,2.5933,2.5945,2.5823,2.5823,2.5823,2.5823,2.5823,2.5823,2.594,2.5898,2.5911,2.5868,2.5871,2.5843,2.5837,2.5829,2.5826,2.5792,2.5775,2.5781,2.578,2.576,2.5739,2.5742,2.5731,2.5709,2.5715,2.581,2.5823,2.5836,2.5848,2.5707,2.5707,2.5614,2.5614,2.5613]}]]